{"data":{"norad_id":68513,"epoch":"2026-05-25T05:30:45.468288Z","epoch_age_seconds":48312,"freshness":"FRESH","line1":"1 68513U 26068F   26145.22969292  .00035975  00000+0  10699-2 0  9999","line2":"2 68513  53.1605 132.3199 0002654  97.8618 262.2686 15.34425476  8684","mean_motion":15.34425476,"eccentricity":0.0002654,"inclination_deg":53.1605,"raan_deg":132.3199,"arg_perigee_deg":97.8618,"mean_anomaly_deg":262.2686,"bstar":0.0010699,"rev_number":868,"period_min":93.846199931055,"perigee_km":460.81198231,"apogee_km":464.44306011786,"semimajor_km":6840.7645212139,"source":"CELESTRAK","updated_at":"2026-05-25T13:38:21.953418Z"}}